Grand Island, NE

3:39 PM CDT on May 22, 2018 (GMT -0500)
Central Nebraska Regional

Weather History for KGRI - October, 2011

Change the Weather History Date:

Tuesday, October 18, 2011

  Actual Average Record
Temperature  
Mean Temperature 46 °F 51 °F  
Max Temperature 55 °F 64 °F 90 °F (1926)
Min Temperature 36 °F 39 °F 18 °F (1922)
Degree Days  
Heating Degree Days 19 14  
Month to date heating degree days 106 194  
Since 1 July heating degree days 267 309  
Cooling Degree Days 0 0  
Month to date cooling degree days 24 10  
Year to date cooling degree days 1112 1033  
Moisture  
Dew Point 29 °F    
Average Humidity 58    
Maximum Humidity 85    
Minimum Humidity 30    
Precipitation  
Precipitation 0.00 in 0.06 in 1.53 in (1897)
Month to date precipitation 2.18 1.19  
Year to date precipitation 25.82 24.19  
Snow  
Snow 0.00 in 0.00 in T in (2006)
Month to date snowfall 0.0 0.3  
Since 1 July snowfall 0.0 0.4  
Since 1 September snowfall 0.0 0.4  
Snow Depth 0.00 in    
Sea Level Pressure  
Sea Level Pressure 30.16 in    
Wind  
Wind Speed 14 mph (NNW)    
Max Wind Speed 30 mph    
Max Gust Speed 38 mph    
Visibility 10 miles    
Events      
T = Trace of Precipitation, MM = Missing Value Source: NWS Daily Summary

Daily Weather History Graph

Daily Weather History Graph

Search for Another Location

Airport or City:

Astronomy

Oct. 18, 2011 Rise Set
Actual Time 7:47 AM CDT 6:48 PM CDT
Civil Twilight 7:19 AM CDT 7:16 PM CDT
Nautical Twilight 6:47 AM CDT 7:48 PM CDT
Astronomical Twilight 6:16 AM CDT 8:19 PM CDT
Moon 11:29 PM CDT (10/18) 1:41 PM CDT (10/18)
Length of Visible Light 11h 56m
Length of Day
11h 00m
Waning Gibbous, 64% of the Moon is Illuminated
Oct 18
Waning Gibbous
Oct 19
Last Quarter
Oct 26
New
Nov 2
First Quarter
Nov 10
Full

Hourly Weather History & Observations

Time (CDT) Temp. Windchill Dew Point Humidity Pressure Visibility Wind Dir Wind Speed Gust Speed Precip Events Conditions
12:53 AM 44.1 °F 37.4 °F 37.9 °F 79% 30.10 in 10.0 mi WNW 13.8 mph - N/A   Clear
1:53 AM 41.0 °F 34.3 °F 36.0 °F 82% 30.10 in 10.0 mi WNW 11.5 mph - N/A   Clear
2:53 AM 39.0 °F 32.8 °F 34.0 °F 82% 30.11 in 10.0 mi WNW 9.2 mph - N/A   Clear
3:53 AM 37.4 °F 30.3 °F 33.8 °F 87% 30.09 in 10.0 mi WNW 10.4 mph - N/A   Clear
4:53 AM 37.0 °F 31.0 °F 32.0 °F 82% 30.13 in 10.0 mi WNW 8.1 mph - N/A   Clear
5:53 AM 36.0 °F 28.0 °F 30.0 °F 79% 30.15 in 10.0 mi NW 11.5 mph - N/A   Clear
6:53 AM 37.0 °F 28.5 °F 30.0 °F 76% 30.17 in 10.0 mi NW 13.8 mph - N/A   Clear
7:53 AM 36.0 °F 27.1 °F 28.9 °F 76% 30.18 in 10.0 mi NNW 13.8 mph - N/A   Clear
8:53 AM 39.9 °F 31.4 °F 30.9 °F 70% 30.19 in 10.0 mi NNW 16.1 mph - N/A   Clear
9:53 AM 42.1 °F 33.9 °F 30.0 °F 62% 30.20 in 10.0 mi NW 17.3 mph 25.3 mph N/A   Clear
10:53 AM 45.0 °F 37.4 °F 30.0 °F 56% 30.21 in 10.0 mi NNW 18.4 mph 27.6 mph N/A   Clear
11:53 AM 46.9 °F - 28.0 °F 48% 30.21 in 10.0 mi North 24.2 mph 32.2 mph N/A   Clear
12:53 PM 50.0 °F - 27.0 °F 41% 30.19 in 10.0 mi NNW 23.0 mph 33.4 mph N/A   Clear
1:53 PM 51.1 °F - 24.1 °F 35% 30.18 in 10.0 mi NNW 26.5 mph 34.5 mph N/A   Clear
2:53 PM 54.0 °F - 24.1 °F 31% 30.16 in 10.0 mi North 24.2 mph 33.4 mph N/A   Clear
3:53 PM 55.0 °F - 24.1 °F 30% 30.14 in 10.0 mi North 25.3 mph 36.8 mph N/A   Clear
4:53 PM 54.0 °F - 25.0 °F 33% 30.15 in 10.0 mi North 24.2 mph 31.1 mph N/A   Clear
5:53 PM 53.1 °F - 26.1 °F 35% 30.16 in 10.0 mi NNW 18.4 mph 28.8 mph N/A   Clear
6:53 PM 48.9 °F - 28.0 °F 44% 30.16 in 10.0 mi North 10.4 mph - N/A   Clear
7:53 PM 43.0 °F 38.2 °F 28.0 °F 56% 30.18 in 10.0 mi NNW 8.1 mph - N/A   Clear
8:53 PM 41.0 °F 39.0 °F 28.0 °F 60% 30.17 in 10.0 mi NNW 3.5 mph - N/A   Clear
9:53 PM 39.0 °F 34.8 °F 28.9 °F 67% 30.17 in 10.0 mi NW 5.8 mph - N/A   Mostly Cloudy
10:53 PM 41.0 °F 37.1 °F 32.0 °F 70% 30.16 in 10.0 mi NW 5.8 mph - N/A   Overcast
11:53 PM 44.1 °F 40.1 °F 30.9 °F 60% 30.16 in 10.0 mi North 6.9 mph - N/A   Overcast